www.pogodaiklimat.ru

Погода и климат >> Архив погоды >> Гана >> Bole


ПОГОДА в Bole

  • Прогноз погоды в Bole
  • Монитор погоды в Bole
  • Климат города

АРХИВ ПОГОДЫ в Bole

Время (UTC), дата Ветер
(напр.,м/с)
 
Видим.   Явления Облачность Т
(С)
Тd
(С)
f
(%)
Тe
(С)
Тes
(С)
Комфортность P
(гПа)
Po
(гПа)
Тmin
(С)
Tmax
(С)
R
(мм)
R24
(мм)
S
(см)
18 18.05 штиль 0 15 км 5/0
[Ci sp]
+29.5 +22.5 66 +39 +39 очень
душно
1010.8 1011.0 +31.4
21 18.05 штиль 0 15 км 5/0
[Ac trans]
+27.1 +23.8 82 +37 +37 очень
душно
1012.2 1012.0
03 19.05 штиль 0 15 км 3/0
[Ac trans Ci sp]
+25.0 +22.9 88 +33 +33 очень
душно
1011.7 1012.0
06 19.05 штиль 0 15 км 1/0
[Ci sp]
+24.0 +22.3 90 +31 +31 очень
душно
1012.9 1013.0 +24.0
12 19.05 ЮЗ 2 15 км 3/3 480 м
[Cu med, cong]
+31.5 +22.6 59 +41 +57 опасность
перегрева
1012.2 1012.0
15 19.05 ЮЗ 1 15 км 8/8 500 м
[Cu med, cong]
+33.0 +22.7 55 +43 +46 опасность
перегрева
1009.3 1009.0
21 19.05 штиль 0 15 км ясно +28.5 +24.5 79 +40 +40 очень
душно
1012.2 1012.0
00 20.05 штиль 0 15 км ясно +27.0 +24.3 85 +38 +38 очень
душно
1012.1 1012.0
03 20.05 ЮЗ 1 15 км ясно +25.6 +23.7 89 +35 +35 очень
душно
1011.1 1011.0
06 20.05 ЮЗ 1 15 км ясно +25.0 +22.7 87 +33 +33 очень
душно
1012.2 1012.0 +25.0
09 20.05 ЮЗ 1 18 км 6/6 450 м
[Cu med, cong]
+28.0 +23.4 76 +38 +43 очень
душно
1012.5 1013.0
12 20.05 ЮЗ 2 18 км 6/6 450 м
[Cu med, cong]
+31.5 +23.7 63 +43 +52 опасность
перегрева
1011.8 1012.0
15 20.05 ЮЗ 1 16 км 6/6 450 м
[Cu med, cong]
+34.0 +22.6 51 +43 +49 опасность
перегрева
1008.6 1009.0
18 20.05 ЮЗ 1 18 км 4/3 480 м
[Cu hum Ac trans]
+32.5 +23.8 60 +44 +44 опасность
перегрева
1008.5 1009.0 +34.0
03 21.05 штиль 0 15 км 3/0
[Ci sp]
+26.0 +23.6 87 +35 +35 очень
душно
1011.0 1011.0
06 21.05 ЮВ 2 15 км 9/6 360 м
[Sc Ac trans]
+25.5 +23.1 87 +34 +34 очень
душно
1013.8 1014.0 +25.5
09 21.05 ЮЗ 2 15 км 9/5 360 м
[Cu Sc Ac trans]
+26.5 +20.3 69 +33 +35 очень
душно
1015.3 1015.0
12 21.05 СЗ 2 15 км 8/4 450 м
[Cu med, cong Ac trans Ci fib]
+29.8 +22.3 64 +39 +47 очень
душно
1011.5 1012.0
15 21.05 З 1 15 км 8/4 480 м
[Cu med, cong Ac trans Cs]
+32.1 +23.6 61 +43 +49 опасность
перегрева
1009.0 1009.0
18 21.05 З 2 15 км 6/3 360 м
[Cu Sc Ci sp]
+31.0 +22.9 62 +41 +41 опасность
перегрева
1009.6 1010.0 +32.1
21 21.05 ЮЗ 1 15 км 1/0
[Ac trans]
+27.5 +22.9 76 +37 +37 очень
душно
1011.8 1012.0
00 22.05 ЮЗ 2 15 км 3/0
[Ac trans Ci sp]
+26.0 +24.3 90 +36 +36 очень
душно
1012.8 1013.0
06 22.05 штиль 0 15 км 4/0
[Ac trans]
+24.6 +23.5 94 +33 +33 очень
душно
1012.4 1012.0 +24.5
12 22.05 ЮЗ 2 15 км 8/8 480 м
[Cu med, cong]
+32.0 +24.7 65 +45 +49 опасность
перегрева
1009.6 1010.0
18 22.05 ЮЗ 1 15 км 6/3 500 м
[Cb cap Ac trans]
+32.0 +23.6 61 +43 +43 опасность
перегрева
1010.1 1010.0 +33.5
21 22.05 ЮЗ 1 15 км ясно +29.5 +23.5 70 +40 +40 очень
душно
1012.8 1013.0
06 23.05 ЮЗ 1 15 км 6/0
[Ac trans Ci sp]
+26.0 +23.6 87 +35 +35 очень
душно
1013.0 1013.0 +26.0
09 23.05 ЮЗ 2 17 км 9/9 360 м
[Sc]
+27.5 +23.7 80 +38 +39 очень
душно
1014.4 1014.0
12 23.05 ЮЗ 2 17 км 9/6 450 м
[Cu med, cong Ac trans]
+29.5 +23.8 71 +40 +45 очень
душно
1013.9 1014.0
15 23.05 ЮЗ 1 17 км 8/5 450 м
[Cu med, cong Ac trans]
+31.0 +23.6 65 +42 +47 опасность
перегрева
1011.4 1011.0
18 23.05 С 1 17 км 8/0
[Ac trans Ci sp]
+30.5 +24.2 69 +42 +43 опасность
перегрева
1011.6 1012.0 +31.0
06 24.05 ЮЗ 1 14 км 5/0
[Ac trans Ci sp]
+25.0 +22.7 87 +33 +33 очень
душно
1013.8 1014.0 +25.0
12 24.05 ЮЗ 2 15 км 6/6 480 м
[Cu med, cong Ci sp]
+33.0 +22.7 55 +43 +52 опасность
перегрева
1011.0 1011.0
15 24.05 ЮВ 1 18 км 8/8 500 м
[Cu med, cong]
+34.0 +23.1 53 +44 +47 опасность
перегрева
1008.9 1009.0
21 24.05 ЮЗ 1 15 км 8/0
[Ac trans Cs]
+30.0 +22.9 66 +40 +40 очень
душно
1011.6 1012.0
00 25.05 штиль 0 15 км 3/0
[Ci sp]
+27.5 +23.7 80 +38 +38 очень
душно
1012.5 1013.0
06 25.05 ЮЗ 1 15 км 9/5 360 м
[Sc Ac trans]
+25.5 +23.1 87 +34 +34 очень
душно
1012.5 1013.0 +25.0
09 25.05 ЮЗ 2 17 км 9/9 360 м
[Cu Sc]
+27.8 +23.2 76 +37 +39 очень
душно
1012.3 1012.0

 

Местоположение метеостанции Bole (Гана): широта 9.03 долгота -2.48 высота над уровнем моря 301 м.

В архиве по умолчанию представлена погода в Bole за последнюю неделю. Архивные данные за месяц целиком и за предыдущие месяцы, начиная с января 2011 года, Вы можете получить, выбрав интересующий диапазон дат из раскрывающегося списка и нажав кнопку "Ввод!".


*Определитесь, кто Вы:
робот инопланетянин человек

Внимание! Время в таблицах - всемирное. Для получения местного времени необходимо прибавить поправку, которая в Bole равна 1 ч.

Смотрите также архив погоды в соседних городах и на ближайших метеорологических станциях:

Погода в Wa (Гана) (113 км)
Погода в Bondoukou (Кот-д'Ивуар) (114 км)
Погода в Wenchi (Гана) (148 км)
Погода в Gaoua (Буркина-Фасо) (164 км)
Погода в Tamale (Гана) (186 км)
Погода в Sunyani (Гана) (190 км)
Погода в Navrongo (Гана) (257 км)
Погода в Yendi (Гана) (274 км)
Погода в Kumasi (Гана) (275 км)
Погода в Po (Буркина-Фасо) (277 км)

Пояснения к столбцам:

Ветер - указаны скорость ветра в м/с - средняя за 10 мин, порывы в срок и между сроками (в фигурных скобках) и направление, откуда дует ветер: С - северный, СВ - северо-восточный, В - восточный, ЮВ - юго-восточный, Ю - южный, ЮЗ - юго-западный, З - западный, СЗ - северо-западный.
Видимость - горизонтальная дальность видимости в метрах или километрах. При видимости от 1 до 10 км при отсутствии осадков обычно наблюдается дымка, при ухудшении видимости до 1 км и менее - туман. В сухую погоду видимость может ухудшаться дымом, пылью или мглою.
Явления - указаны атмосферные явления, наблюдавшиеся в срок или в последний час перед сроком; фигурными скобками обозначены явления, наблюдавшиеся между сроками (за 1-3 часа до срока); квадратными скобками обозначены град или гололедные отложения с указанием их диаметра в мм.
Облачность - указаны через наклонную черту общая и нижняя облачность в баллах и высота нижней границы облаков в метрах; квадратными скобками обозначены формы облаков: Ci - перистые, Cs - перисто-слоистые, Cc - перисто-кучевые, Ac - высококучевые, As - высокослоистые, Sc - слоисто-кучевые, Ns - слоисто-дождевые, Cu - кучевые, Cb - кучево-дождевые. Подробнее классификацию облаков см. в Атласе облаков (PDF).
T - Температура воздуха - температура, измеренная на высоте 2 м над землей.
Td - Температура точки росы - температура, при понижении до которой содержащийся в воздухе водяной пар достигнет насыщения.
f - Относительная влажность воздуха - влажноcть воздуха, измеренная на высоте 2 м над землей.
Te - Эффективная температура - температура, которую ощущает одетый по сезону человек в тени. Характеристика душности погоды. При расчете учитывается влияние влажности воздуха и скорости ветра на теплоощущения человека.
Tes - Эффективная температура на солнце - температура, которую ощущает человек, с поправкой на солнечный нагрев. Характеристика знойности погоды. Зависит от высоты солнца над горизонтом, облачности и скорости ветра. Ночью, в пасмурную погоду, а также при ветре 12 м/с и более поправка равна нулю.
P - Атмосферное давление - приведенное к уровню моря атмосферное давление.
Po - Атмосферное давление - измеренное на уровне метеостанции атмосферное давление.
Tmin - Минимальная температура - минимум температуры воздуха на высоте 2 м над землей.
Tmax - Максимальная температура - максимум температуры воздуха на высоте 2 м над землей.
R - Количество осадков - Количество выпавших осадков за период времени, мм. При наведении курсора мыши на число - период времени, за который выпало указанное количество осадков.
R24 - Количество осадков - Количество выпавших осадков за 24 часа, мм.
S - Снежный покров - Высота снежного покрова, см. При наведении курсора мыши на число - состояние снежного покрова и степень покрытия местности в баллах.